Ontario, CA

5:48 PM PDT on October 19, 2017 (GMT -0700)
Ontario International

Weather History for KONT - March, 2013

Change the Weather History Date:

Sunday, March 3, 2013

  Actual Average Record
Temperature  
Mean Temperature 63 °F 57 °F  
Max Temperature 73 °F 68 °F 80 °F (2017)
Min Temperature 52 °F 47 °F 34 °F (2002)
Degree Days  
Heating Degree Days 2 8  
Month to date heating degree days 2 24  
Since 1 July heating degree days 1110 1181  
Cooling Degree Days 0 0  
Month to date cooling degree days 4 0  
Year to date cooling degree days 5 6  
Growing Degree Days 12 (Base 50)    
Moisture  
Dew Point 35 °F    
Average Humidity 31    
Maximum Humidity 43    
Minimum Humidity 19    
Precipitation  
Precipitation T in 0.15 in 0.47 in (2006)
Month to date precipitation T 0.44  
Year to date precipitation 1.84 7.14  
Since 1 July precipitation 4.61  
Snow  
Snow 0.00 in - - ()
Month to date snowfall 0.0  
Year to date snowfall 0.0  
Snow Depth 0.00 in    
Sea Level Pressure  
Sea Level Pressure 30.01 in    
Wind  
Wind Speed 5 mph (WSW)    
Max Wind Speed 15 mph    
Max Gust Speed 18 mph    
Visibility 10 miles    
Events      
T = Trace of Precipitation, MM = Missing Value Source: NWS Daily Summary

Daily Weather History Graph

Daily Weather History Graph

Search for Another Location

Airport or City:

Trip Planner

Search our weather history database for the weather conditions in past years. The results will help you decide how hot, cold, wet, or windy it might be!

Date:

Astronomy

Mar. 03, 2013 Rise Set
Actual Time 6:16 AM PST 5:48 PM PST
Civil Twilight 5:51 AM PST 6:13 PM PST
Nautical Twilight 5:22 AM PST 6:42 PM PST
Astronomical Twilight 4:53 AM PST 7:11 PM PST
Moon No Moon Rise 9:53 AM PST (3/3)
Length of Visible Light 12h 22m
Length of Day
11h 32m
Waning Gibbous, 62% of the Moon is Illuminated
Mar 3
Waning Gibbous
Mar 4
Last Quarter
Mar 11
New
Mar 19
First Quarter
Mar 27
Full

Hourly Weather History & Observations

Time (PST) Temp. Dew Point Humidity Pressure Visibility Wind Dir Wind Speed Gust Speed Precip Events Conditions
12:53 AM 57.9 °F 32.0 °F 37% 30.08 in 10.0 mi Calm Calm - N/A   Scattered Clouds
1:53 AM 55.9 °F 30.9 °F 39% 30.07 in 10.0 mi North 3.5 mph - N/A   Scattered Clouds
2:53 AM 55.0 °F 33.1 °F 43% 30.05 in 10.0 mi Calm Calm - N/A   Scattered Clouds
3:53 AM 57.9 °F 33.1 °F 39% 30.00 in 10.0 mi NNE 9.2 mph - 0.00 in   Mostly Cloudy
4:53 AM 59.0 °F 25.0 °F 27% 30.00 in 10.0 mi SE 4.6 mph - N/A   Scattered Clouds
5:53 AM 54.0 °F 30.9 °F 41% 30.04 in 10.0 mi Calm Calm - N/A   Mostly Cloudy
6:53 AM 55.0 °F 30.9 °F 40% 30.06 in 10.0 mi Calm Calm - N/A   Mostly Cloudy
7:53 AM 59.0 °F 32.0 °F 36% 30.06 in 10.0 mi Calm Calm - N/A   Mostly Cloudy
8:53 AM 64.0 °F 30.0 °F 28% 30.05 in 10.0 mi SE 4.6 mph - N/A   Mostly Cloudy
9:53 AM 64.0 °F 30.0 °F 28% 30.06 in 10.0 mi SSW 3.5 mph - N/A   Overcast
10:53 AM 68.0 °F 30.9 °F 25% 30.05 in 10.0 mi WSW 9.2 mph - N/A   Overcast
11:53 AM 69.1 °F 28.9 °F 22% 30.02 in 10.0 mi SW 9.2 mph - N/A   Mostly Cloudy
12:53 PM 70.0 °F 30.0 °F 23% 30.00 in 10.0 mi WSW 11.5 mph - N/A   Mostly Cloudy
1:53 PM 72.0 °F 27.0 °F 19% 29.97 in 10.0 mi WSW 8.1 mph - N/A   Mostly Cloudy
2:53 PM 71.1 °F 28.0 °F 20% 29.96 in 10.0 mi SW 10.4 mph 16.1 mph N/A   Mostly Cloudy
3:53 PM 71.1 °F 32.0 °F 24% 29.94 in 10.0 mi WSW 10.4 mph - N/A   Mostly Cloudy
4:53 PM 66.9 °F 41.0 °F 39% 29.95 in 10.0 mi WSW 13.8 mph - N/A   Mostly Cloudy
5:53 PM 63.0 °F 41.0 °F 45% 29.96 in 10.0 mi WSW 10.4 mph - N/A   Mostly Cloudy
6:53 PM 60.1 °F 42.1 °F 51% 29.99 in 10.0 mi West 10.4 mph - N/A   Mostly Cloudy
7:53 PM 57.0 °F 42.1 °F 57% 29.99 in 10.0 mi West 9.2 mph - N/A   Mostly Cloudy
8:53 PM 57.0 °F 44.1 °F 62% 29.99 in 10.0 mi WSW 5.8 mph - N/A   Mostly Cloudy
9:53 PM 54.0 °F 45.0 °F 72% 30.00 in 10.0 mi West 9.2 mph - N/A   Mostly Cloudy
10:53 PM 53.1 °F 46.0 °F 77% 30.00 in 10.0 mi West 8.1 mph - N/A   Partly Cloudy
11:46 PM 51.8 °F 48.2 °F 88% 30.02 in 7.0 mi North 31.1 mph 56.4 mph N/A   Squalls
11:53 PM 52.0 °F 48.0 °F 86% 30.01 in 7.0 mi North 11.5 mph - N/A   Mostly Cloudy